This is the latest recevied weather packets stored in our database for station/object VU3OPX-13. If no packets are shown the sender has not sent any weather packets the latest 10 day(s).
| Time | Temp. | Humidity | Pressure | Rain* | Wind** | Luminosity | Snow |
|---|---|---|---|---|---|---|---|
| 1788364019 | 21.67° C | 93% | 1013 hPa | 0 mm | - | - | - |
| 1788362232 | 21.67° C | 92% | 1013 hPa | 0 mm | - | - | - |
| 1788360444 | 22.22° C | 92% | 1013 hPa | 0 mm | - | - | - |
| 1788358657 | 22.22° C | 89% | 1012 hPa | 0 mm | - | - | - |
| 1788356870 | 22.22° C | 89% | 1012 hPa | 0 mm | - | - | - |
| 1788355082 | 23.33° C | 85% | 1011 hPa | 0 mm | - | - | - |
| 1788353295 | 22.78° C | 83% | 1012 hPa | 0 mm | - | - | - |
| 1788351508 | 24.44° C | 79% | 1011 hPa | 0 mm | - | - | - |
| 1788349719 | 24.44° C | 79% | 1011 hPa | 0 mm | - | - | - |
| 1788347932 | 25.56° C | 73% | 1010 hPa | 0 mm | - | - | - |
| 1788346145 | 25.56° C | 71% | 1010 hPa | 0 mm | - | - | - |
| 1788344358 | 26.11° C | 70% | 1010 hPa | 0 mm | - | - | - |
| 1788342570 | 26.11° C | 69% | 1010 hPa | 0 mm | - | - | - |
| 1788340782 | 26.67° C | 68% | 1010 hPa | 0 mm | - | - | - |
| 1788338995 | 26.67° C | 67% | 1010 hPa | 0 mm | - | - | - |
| 1788336612 | 26.67° C | 69% | 1011 hPa | 0 mm | - | - | - |
| 1788334824 | 26.67° C | 69% | 1011 hPa | 0 mm | - | - | - |
| 1788333036 | 26.11° C | 73% | 1012 hPa | 0 mm | - | - | - |
| 1788331249 | 26.11° C | 73% | 1012 hPa | 0 mm | - | - | - |
| 1788329462 | 25.56° C | 75% | 1013 hPa | 0 mm | - | - | - |
| 1788327674 | 25.56° C | 74% | 1013 hPa | 0 mm | - | - | - |
| 1788325328 | 25.56° C | 74% | 1014 hPa | 0 mm | - | - | - |
| 1788323541 | 25.56° C | 74% | 1014 hPa | 0 mm | - | - | - |
| 1788321753 | 25° C | 77% | 1014 hPa | 0 mm | - | - | - |
| 1788319966 | 25° C | 76% | 1014 hPa | 0 mm | - | - | - |
* Rain latest hour (hover to see other rain measurements)
** Current wind speed in m/s (hover to see current wind gust speed)